TimeCST,TemperatureF,Dew PointF,Humidity,Sea Level PressureIn,VisibilityMPH,Wind Direction,Wind SpeedMPH,Gust SpeedMPH,PrecipitationIn,Events,Conditions,WindDirDegrees,DateUTC
12:15 AM,64.4,53.6,68,29.99,10.0,South,6.9,-,N/A,,Clear,170,2012-12-02 06:15:00
12:35 AM,64.4,53.6,68,29.99,10.0,South,6.9,-,N/A,,Clear,170,2012-12-02 06:35:00
1:15 AM,62.6,53.6,72,29.99,10.0,South,6.9,-,N/A,,Clear,170,2012-12-02 07:15:00
1:35 AM,62.6,53.6,72,29.99,10.0,South,6.9,-,N/A,,Clear,180,2012-12-02 07:35:00
1:55 AM,64.4,55.4,73,29.99,10.0,South,9.2,-,N/A,,Clear,190,2012-12-02 07:55:00
2:16 AM,64.4,55.4,73,29.99,10.0,SSW,11.5,17.3,N/A,,Clear,200,2012-12-02 08:16:00
2:55 AM,64.4,55.4,73,30.00,10.0,SSW,9.2,-,N/A,,Clear,200,2012-12-02 08:55:00
3:35 AM,64.4,55.4,73,29.99,10.0,SSW,9.2,-,N/A,,Clear,200,2012-12-02 09:35:00
3:55 AM,64.4,55.4,73,29.99,10.0,SSW,6.9,-,N/A,,Clear,200,2012-12-02 09:55:00
4:15 AM,64.4,55.4,73,29.99,10.0,SSW,9.2,-,N/A,,Clear,200,2012-12-02 10:15:00
4:36 AM,64.4,55.4,73,29.99,10.0,South,8.1,-,N/A,,Clear,190,2012-12-02 10:36:00
5:15 AM,62.6,55.4,77,30.00,10.0,South,5.8,-,N/A,,Clear,190,2012-12-02 11:15:00
5:35 AM,62.6,55.4,77,30.00,10.0,South,5.8,-,N/A,,Clear,190,2012-12-02 11:35:00
5:55 AM,60.8,53.6,77,30.01,10.0,South,4.6,-,N/A,,Clear,180,2012-12-02 11:55:00
5:56 AM,60.8,53.6,77,30.01,10.0,South,5.8,-,N/A,,Clear,170,2012-12-02 11:56:00
6:15 AM,62.6,53.6,72,30.01,10.0,South,3.5,-,N/A,,Clear,180,2012-12-02 12:15:00
6:36 AM,62.6,55.4,77,30.02,10.0,South,3.5,-,N/A,,Clear,180,2012-12-02 12:36:00
6:55 AM,62.6,55.4,77,30.03,10.0,SSW,4.6,-,N/A,,Clear,200,2012-12-02 12:55:00
7:15 AM,62.6,55.4,77,30.04,10.0,South,4.6,-,N/A,,Clear,190,2012-12-02 13:15:00
7:55 AM,64.4,55.4,73,30.05,10.0,SSW,4.6,-,N/A,,Clear,200,2012-12-02 13:55:00
8:15 AM,64.4,55.4,73,30.06,10.0,South,4.6,-,N/A,,Scattered Clouds,180,2012-12-02 14:15:00
8:35 AM,66.2,57.2,73,30.06,10.0,South,4.6,-,N/A,,Mostly Cloudy,180,2012-12-02 14:35:00
9:15 AM,68.0,57.2,68,30.07,10.0,South,4.6,-,N/A,,Overcast,190,2012-12-02 15:15:00
9:35 AM,68.0,57.2,68,30.08,10.0,SSW,6.9,-,N/A,,Overcast,200,2012-12-02 15:35:00
9:55 AM,69.8,57.2,64,30.08,10.0,South,8.1,-,N/A,,Overcast,180,2012-12-02 15:55:00
10:15 AM,69.8,57.2,64,30.07,10.0,South,9.2,-,N/A,,Mostly Cloudy,190,2012-12-02 16:15:00
10:35 AM,71.6,57.2,60,30.07,10.0,SSW,5.8,-,N/A,,Scattered Clouds,200,2012-12-02 16:35:00
11:16 AM,73.4,57.2,57,30.06,10.0,SSW,9.2,-,N/A,,Mostly Cloudy,210,2012-12-02 17:16:00
11:35 AM,73.4,57.2,57,30.05,10.0,SW,10.4,17.3,N/A,,Scattered Clouds,220,2012-12-02 17:35:00
11:55 AM,73.4,57.2,57,30.04,10.0,SSW,10.4,-,N/A,,Mostly Cloudy,210,2012-12-02 17:55:00
12:35 PM,75.2,55.4,50,30.03,10.0,SW,12.7,20.7,N/A,,Mostly Cloudy,220,2012-12-02 18:35:00
1:15 PM,77.0,55.4,47,30.01,10.0,SW,12.7,19.6,N/A,,Partly Cloudy,220,2012-12-02 19:15:00
1:35 PM,75.2,55.4,50,30.01,10.0,SSW,10.4,20.7,N/A,,Scattered Clouds,210,2012-12-02 19:35:00
1:55 PM,77.0,55.4,47,30.00,10.0,SW,13.8,20.7,N/A,,Scattered Clouds,220,2012-12-02 19:55:00
2:15 PM,75.2,55.4,50,29.99,10.0,SW,11.5,20.7,N/A,,Partly Cloudy,230,2012-12-02 20:15:00
2:36 PM,77.0,55.4,47,29.99,10.0,SW,10.4,16.1,N/A,,Scattered Clouds,220,2012-12-02 20:36:00
2:55 PM,75.2,55.4,50,29.99,10.0,SSW,11.5,18.4,N/A,,Partly Cloudy,200,2012-12-02 20:55:00
3:15 PM,75.2,55.4,50,29.99,10.0,SSW,9.2,16.1,N/A,,Clear,210,2012-12-02 21:15:00
3:36 PM,75.2,55.4,50,29.99,10.0,South,6.9,-,N/A,,Scattered Clouds,190,2012-12-02 21:36:00
3:55 PM,73.4,55.4,53,29.99,10.0,South,10.4,16.1,N/A,,Mostly Cloudy,190,2012-12-02 21:55:00
4:15 PM,73.4,55.4,53,30.00,10.0,SSW,8.1,-,N/A,,Mostly Cloudy,200,2012-12-02 22:15:00
5:15 PM,71.6,55.4,57,30.00,10.0,South,5.8,-,N/A,,Overcast,180,2012-12-02 23:15:00
5:35 PM,71.6,55.4,57,30.01,10.0,SSW,6.9,16.1,N/A,,Overcast,200,2012-12-02 23:35:00
5:55 PM,71.6,55.4,57,30.02,10.0,South,9.2,-,N/A,,Overcast,190,2012-12-02 23:55:00
6:15 PM,69.8,55.4,60,30.02,10.0,South,5.8,-,N/A,,Scattered Clouds,180,2012-12-03 00:15:00
6:55 PM,69.8,55.4,60,30.02,10.0,South,5.8,-,N/A,,Clear,170,2012-12-03 00:55:00
7:15 PM,68.0,55.4,64,30.03,10.0,South,5.8,-,N/A,,Clear,170,2012-12-03 01:15:00
8:15 PM,66.2,55.4,68,30.02,10.0,SSE,5.8,-,N/A,,Clear,160,2012-12-03 02:15:00
9:15 PM,66.2,55.4,68,30.02,10.0,South,5.8,-,N/A,,Clear,170,2012-12-03 03:15:00
9:55 PM,66.2,55.4,68,30.02,10.0,South,5.8,-,N/A,,Clear,180,2012-12-03 03:55:00
10:16 PM,66.2,55.4,68,30.01,10.0,South,6.9,-,N/A,,Clear,180,2012-12-03 04:16:00
10:35 PM,66.2,55.4,68,30.01,10.0,South,9.2,-,N/A,,Clear,190,2012-12-03 04:35:00
10:55 PM,66.2,55.4,68,30.01,10.0,South,6.9,-,N/A,,Clear,180,2012-12-03 04:55:00
11:15 PM,66.2,55.4,68,30.01,10.0,South,10.4,-,N/A,,Clear,190,2012-12-03 05:15:00
11:35 PM,66.2,55.4,68,30.01,10.0,South,5.8,-,N/A,,Clear,180,2012-12-03 05:35:00
11:55 PM,66.2,55.4,68,30.01,10.0,South,5.8,-,N/A,,Clear,180,2012-12-03 05:55:00